Location: Balsareny
(41.8670°N, 1.8830°E)
Time: 03:57:41
(UTC+01:00)

N. Korean satellite - Pass Details

Date: 10 December 2021
Orbit: 447 x 491 km, 97.3° (Epoch: 23 January)

Event Time Altitude Azimuth Distance (km) Brightness Sun altitude
Rises 18:13:56 0° 204° (SSW) 2,507 11.0 -9.6°
Reaches altitude 10° 18:16:38 10° 227° (SW) 1,625 10.5 -10.0°
Maximum altitude 18:18:49 16° 267° (W) 1,305 9.9 -10.4°
Drops below altitude 10° 18:21:01 10° 306° (NW) 1,617 9.7 -10.8°
Sets 18:23:41 0° 329° (NNW) 2,488 10.3 -11.3°
